Location: Bad Salzschlirf
(50.3750°N, 9.3000°E)
Time: 05:29:32
(UTC+02:00)

ISS - Pass Details

Date: 26 March 2020
Orbit: 417 x 423 km, 51.6° (Epoch: 29 March)

Event Time Altitude Azimuth Distance (km) Brightness Sun altitude
Rises 19:50:39 0° 265° (W) 2,357 1.5 -10.9°
Reaches altitude 10° 19:52:45 10° 268° (W) 1,495 0.3 -11.2°
Maximum altitude 19:56:05 72° 353° (N) 442 -3.6 -11.7°
Enters shadow 19:58:36 17° 77° (ENE) 1,156 -2.0 -12.1°
